EW8758 Weather Reports


Display with metric or nautical units.
time (UTC)temp
F
wind
direction
speed
MPH
gust
MPH
rain 1hr
in
rain 24hr
in
rain mn
in
humidity
%
barometer
mb
20260507002828 44 63 0.0 2.0 0.00 0.00 0.00 87 1012.5
20260507001802 44 63 0.0 2.0 0.00 0.00 0.00 86 1012.5
20260507000802 44 63 0.0 2.0 0.00 0.00 0.00 86 1012.5
20260506235802 45 63 0.0 0.0 0.00 0.00 0.00 85 1012.6
20260506234757 45 63 0.0 2.0 0.00 0.00 0.00 85 1012.6
20260506233725 46 63 0.0 2.0 0.00 0.00 0.00 84 1012.6
20260506232658 46 63 0.0 4.0 0.00 0.00 0.00 84 1012.6
20260506231656 46 63 1.0 4.0 0.00 0.00 0.00 84 1012.5
20260506230658 47 63 0.0 3.0 0.00 0.00 0.00 84 1012.6
20260506225633 47 63 0.0 2.0 0.00 0.00 0.00 83 1012.6
20260506224600 47 63 0.0 2.0 0.00 0.00 0.00 83 1012.5
20260506223559 47 63 0.0 3.0 0.00 0.00 0.00 83 1012.5
20260506222557 48 63 0.0 3.0 0.00 0.00 0.00 82 1012.4
20260506221558 48 63 0.0 3.0 0.00 0.00 0.00 82 1012.4
20260506220541 48 63 0.0 5.0 0.00 0.00 0.00 81 1012.2
20260506215520 49 63 1.0 4.0 0.00 0.00 0.00 80 1012.2
20260506214446 49 63 0.0 4.0 0.00 0.00 0.00 79 1012.1
20260506213420 49 63 0.0 3.0 0.00 0.00 0.00 79 1012.0
20260506212355 50 63 0.0 1.0 0.00 0.00 0.00 78 1012.0
20260506211357 50 63 0.0 2.0 0.00 0.00 0.00 76 1011.9
20260506210741 51 63 0.0 2.0 0.00 0.00 0.00 74 1011.7
20260506210407 50 63 0.0 4.0 0.00 0.00 0.00 75 1011.7
20260506204257 51 63 1.0 5.0 0.00 0.00 0.00 73 1011.7
20260506203229 51 63 1.0 7.0 0.00 0.00 0.00 73 1011.7
20260506202629 51 63 1.0 5.0 0.00 0.00 0.00 73 1011.4
20260506202510 52 63 0.0 4.0 0.00 0.00 0.00 73 1011.4
20260506202313 51 63 1.0 5.0 0.00 0.00 0.00 72 1011.5
20260506195140 52 63 1.0 5.0 0.00 0.00 0.00 73 1011.3
20260506194550 52 66 1.0 4.0 0.00 0.00 0.00 76 1011.0
20260506194219 52 63 1.0 6.0 0.00 0.00 0.00 74 1011.2
20260506192100 52 66 0.0 2.0 0.00 0.00 0.00 77 1010.8
20260506191041 52 66 0.0 0.0 0.00 0.00 0.00 79 1010.7
20260506190014 52 66 0.0 0.0 0.00 0.00 0.00 79 1010.5
20260506184954 52 66 0.0 0.0 0.00 0.00 0.00 78 1010.3
20260506183931 53 66 0.0 0.0 0.00 0.00 0.00 76 1010.3
20260506182901 53 66 0.0 0.0 0.00 0.00 0.00 74 1010.2
20260506181851 53 66 0.0 0.0 0.00 0.00 0.00 71 1010.1
20260506180825 54 66 0.0 2.0 0.00 0.00 0.00 70 1010.1
20260506175805 54 66 0.0 2.0 0.00 0.00 0.00 69 1009.9
20260506174805 54 66 0.0 3.0 0.00 0.00 0.00 68 1009.7
20260506173757 54 66 0.0 2.0 0.00 0.00 0.00 67 1009.4
20260506172745 54 66 1.0 3.0 0.00 0.00 0.00 67 1009.4
20260506171744 54 66 1.0 3.0 0.00 0.00 0.00 66 1009.3
20260506170746 54 66 1.0 3.0 0.00 0.00 0.00 66 1009.3
20260506165738 54 66 1.0 4.0 0.00 0.00 0.00 66 1009.4
20260506164736 54 66 1.0 4.0 0.00 0.00 0.00 66 1009.4
20260506163721 54 66 1.0 4.0 0.00 0.00 0.00 65 1009.5
20260506162721 54 66 2.0 4.0 0.00 0.00 0.00 64 1009.4
20260506161711 55 66 2.0 5.0 0.00 0.00 0.00 63 1009.4
20260506160701 55 66 1.0 6.0 0.00 0.00 0.00 63 1009.2
20260506155701 55 66 1.0 6.0 0.00 0.00 0.00 62 1009.4
20260506155030 56 64 1.0 4.0 0.00 0.00 0.00 60 1009.2
20260506154715 56 64 1.0 3.0 0.00 0.00 0.00 61 1009.2
20260506152558 56 64 1.0 5.0 0.00 0.00 0.00 62 1009.2
20260506151527 56 64 0.0 3.0 0.00 0.00 0.00 62 1009.2
20260506150520 55 64 2.0 4.0 0.00 0.00 0.00 60 1009.0
20260506145947 55 66 2.0 6.0 0.00 0.00 0.00 61 1009.1
20260506144510 56 66 2.0 5.0 0.00 0.00 0.00 59 1009.1
20260506143453 55 66 2.0 7.0 0.00 0.00 0.00 61 1009.1
20260506142453 55 68 2.0 5.0 0.00 0.00 0.00 60 1009.1
20260506141455 55 68 2.0 6.0 0.00 0.00 0.00 60 1009.2
20260506140452 55 67 2.0 8.0 0.00 0.00 0.00 59 1009.2
20260506135452 55 63 3.0 10.0 0.00 0.00 0.00 59 1009.1
20260506134450 56 105 4.0 10.0 0.00 0.00 0.00 59 1009.0
20260506133423 56 71 3.0 10.0 0.00 0.00 0.00 60 1009.1
20260506132424 56 79 2.0 9.0 0.00 0.00 0.00 61 1009.1
20260506131403 55 62 3.0 9.0 0.00 0.00 0.00 62 1009.1
20260506130404 55 66 3.0 8.0 0.00 0.00 0.00 62 1009.1
20260506125401 54 81 2.0 7.0 0.00 0.00 0.00 63 1008.9
20260506124402 54 80 2.0 8.0 0.00 0.00 0.00 64 1009.0
20260506123352 54 81 3.0 7.0 0.00 0.00 0.00 62 1009.0
20260506122330 54 69 3.0 8.0 0.00 0.00 0.00 63 1009.0
20260506121749 54 76 3.0 8.0 0.00 0.00 0.00 61 1008.8
20260506121632 54 77 3.0 9.0 0.00 0.00 0.00 59 1008.7
20260506121413 54 57 4.0 11.0 0.00 0.00 0.00 62 1008.9
20260506114240 54 57 4.0 10.0 0.00 0.00 0.00 59 1008.7
20260506113255 55 75 2.0 7.0 0.00 0.00 0.00 60 1008.7
20260506112241 54 53 3.0 9.0 0.00 0.00 0.00 59 1008.7
20260506111213 54 64 2.0 7.0 0.00 0.00 0.00 59 1008.6
20260506110206 54 61 3.0 8.0 0.00 0.00 0.00 59 1008.6
20260506105202 54 62 3.0 8.0 0.00 0.00 0.00 59 1008.6
20260506104140 54 59 3.0 10.0 0.00 0.00 0.00 58 1008.6
20260506103131 54 71 3.0 11.0 0.00 0.00 0.00 56 1008.6
20260506102136 54 76 4.0 13.0 0.00 0.00 0.00 57 1008.5
20260506101120 54 50 3.0 12.0 0.00 0.00 0.00 60 1008.3
20260506100127 54 57 3.0 10.0 0.00 0.00 0.00 61 1008.3
20260506095116 54 59 2.0 8.0 0.00 0.00 0.00 62 1008.4
20260506094112 54 51 3.0 9.0 0.00 0.00 0.00 65 1008.3
20260506093108 54 64 3.0 9.0 0.00 0.00 0.00 67 1008.2
20260506092040 53 61 3.0 8.0 0.00 0.00 0.00 69 1008.2
20260506091031 53 66 3.0 11.0 0.00 0.00 0.00 71 1008.2
20260506085959 53 57 3.0 8.0 0.00 0.00 0.00 73 1008.1
20260506085001 53 59 1.0 5.0 0.00 0.00 0.00 79 1008.1
20260506084010 53 59 2.0 5.0 0.00 0.00 0.00 78 1008.1
20260506082948 53 59 1.0 5.0 0.00 0.00 0.00 78 1007.9
20260506081940 52 61 1.0 5.0 0.00 0.00 0.00 78 1007.9
20260506081321 52 59 2.0 4.0 0.00 0.00 0.00 78 1007.8
20260506080950 52 57 2.0 7.0 0.00 0.00 0.00 78 1007.9
20260506073257 52 59 2.0 8.0 0.00 0.00 0.00 78 1007.7
20260506072922 52 53 2.0 8.0 0.00 0.00 0.00 77 1007.6
20260506070826 52 59 1.0 6.0 0.00 0.00 0.00 79 1007.7
20260506061741 51 55 1.0 6.0 0.00 0.00 0.00 83 1007.4
20260506061125 50 57 1.0 8.0 0.00 0.00 0.00 85 1007.4
20260506060758 50 57 2.0 7.0 0.00 0.00 0.00 84 1007.4
20260506050603 49 57 0.0 4.0 0.00 0.00 0.00 86 1007.2
20260506044522 49 57 1.0 3.0 0.00 0.00 0.00 86 1007.4
20260506043506 49 57 1.0 5.0 0.00 0.00 0.00 86 1007.3
20260506042458 49 57 1.0 4.0 0.00 0.00 0.00 87 1007.3
20260506041507 49 57 0.0 4.0 0.00 0.00 0.00 86 1007.4
20260506040452 49 57 0.0 3.0 0.00 0.00 0.00 87 1007.4
20260506035421 49 57 0.0 3.0 0.00 0.00 0.00 87 1007.4
20260506034346 49 57 0.0 2.0 0.00 0.00 0.00 87 1007.5
20260506033341 49 57 0.0 3.0 0.00 0.00 0.00 86 1007.5
20260506032332 49 57 0.0 3.0 0.00 0.00 0.00 87 1007.6
20260506031323 49 57 0.0 2.0 0.00 0.00 0.00 87 1007.7
20260506030313 49 57 0.0 2.0 0.00 0.00 0.00 87 1007.8
20260506030226 49 57 1.0 5.0 0.00 0.00 0.00 87 1007.9
20260506024234 49 57 0.0 5.0 0.00 0.00 0.00 87 1008.0
20260506023231 49 57 1.0 4.0 0.00 0.00 0.00 88 1008.0
20260506022232 49 57 0.0 4.0 0.00 0.00 0.00 88 1008.0
20260506021213 48 57 1.0 5.0 0.00 0.00 0.00 89 1008.1
20260506020152 48 57 1.0 4.0 0.00 0.00 0.00 89 1008.1
20260506015146 48 57 0.0 3.0 0.00 0.00 0.00 90 1008.3
20260506014134 48 57 0.0 3.0 0.00 0.00 0.00 90 1008.3
20260506013101 48 57 1.0 4.0 0.00 0.00 0.00 90 1008.4
20260506012041 48 57 0.0 3.0 0.00 0.00 0.00 90 1008.3
20260506011027 48 57 1.0 5.0 0.00 0.00 0.00 90 1008.5
20260506010011 48 57 2.0 5.0 0.00 0.00 0.00 90 1008.6
20260506005000 48 59 1.0 5.0 0.00 0.00 0.00 89 1008.7
20260506004000 48 59 1.0 5.0 0.00 0.00 0.00 89 1008.8